When you browse on this site, cookies collect data to enhance your experience and personalize the content and advertising you see.
Visit our Privacy Policy to learn more. By continuing to use the site, you agree to this use of cookies and data.

Previsão horária em Abbeville

Hoje, 28 Setembro, Segunda-feira

Tempo Temperatura Precipitação Vento Pressão Humidade
00:00 +14°C° 0.3 mm 7 m/s 755 mmHg 93%
01:00 +14°C° 0.2 mm 7 m/s 754 mmHg 93%
02:00 +14°C° 0.2 mm 7 m/s 754 mmHg 93%
03:00 +14°C° 0.2 mm 6 m/s 754 mmHg 93%
04:00 +14°C° 0.1 mm 6 m/s 754 mmHg 93%
05:00 +14°C° 0.1 mm 6 m/s 755 mmHg 93%
06:00 +14°C° 0.1 mm 5 m/s 755 mmHg 93%
07:00 +14°C° 0 mm 5 m/s 755 mmHg 93%
08:00 +13°C° 0 mm 5 m/s 755 mmHg 92%
09:00 +13°C° 0 mm 6 m/s 755 mmHg 91%
10:00 +14°C° 0 mm 6 m/s 755 mmHg 90%
11:00 +14°C° 0 mm 6 m/s 756 mmHg 89%
12:00 +14°C° 0 mm 6 m/s 756 mmHg 87%
13:00 +14°C° 0 mm 6 m/s 756 mmHg 83%
14:00 +14°C° 0 mm 6 m/s 756 mmHg 78%
15:00 +14°C° 0 mm 6 m/s 756 mmHg 73%
16:00 +14°C° 0 mm 5 m/s 756 mmHg 72%
17:00 +13°C° 0 mm 4 m/s 756 mmHg 71%
18:00 +12°C° 0 mm 4 m/s 757 mmHg 70%
19:00 +12°C° 0 mm 3 m/s 757 mmHg 76%
20:00 +12°C° 0 mm 3 m/s 757 mmHg 83%
21:00 +12°C° 0 mm 3 m/s 758 mmHg 90%
22:00 +12°C° 0 mm 3 m/s 758 mmHg 91%
23:00 +13°C° 0 mm 3 m/s 758 mmHg 92%

Amanhã, 29 Setembro, Terça-feira

Tempo Temperatura Precipitação Vento Pressão Humidade
00:00 +13°C° 0 mm 3 m/s 758 mmHg 94%
01:00 +13°C° 0 mm 3 m/s 758 mmHg 94%
02:00 +14°C° 0 mm 2 m/s 758 mmHg 95%
03:00 +14°C° 0 mm 2 m/s 758 mmHg 95%
04:00 +15°C° 0 mm 2 m/s 758 mmHg 96%
05:00 +15°C° 0 mm 2 m/s 758 mmHg 96%
06:00 +15°C° 0 mm 2 m/s 759 mmHg 97%
07:00 +16°C° 0.3 mm 3 m/s 759 mmHg 94%
08:00 +17°C° 0.3 mm 3 m/s 759 mmHg 91%
09:00 +18°C° 0.3 mm 4 m/s 759 mmHg 88%
10:00 +18°C° 0.9 mm 4 m/s 759 mmHg 86%
11:00 +17°C° 0.9 mm 5 m/s 759 mmHg 85%
12:00 +19°C° 0.9 mm 5 m/s 759 mmHg 83%
13:00 +19°C° 0.2 mm 4 m/s 759 mmHg 81%
14:00 +19°C° 0.2 mm 4 m/s 759 mmHg 79%
15:00 +18°C° 0.2 mm 4 m/s 759 mmHg 77%
16:00 +17°C° 0 mm 3 m/s 759 mmHg 81%
17:00 +16°C° 0 mm 2 m/s 759 mmHg 85%
18:00 +15°C° 0 mm 2 m/s 759 mmHg 90%
19:00 +14°C° 0 mm 2 m/s 759 mmHg 90%
20:00 +14°C° 0 mm 2 m/s 759 mmHg 91%
21:00 +13°C° 0 mm 2 m/s 759 mmHg 91%
22:00 +13°C° 0 mm 2 m/s 759 mmHg 91%
23:00 +13°C° 0 mm 2 m/s 758 mmHg 91%

Depois de amanhã, 30 Setembro, Quarta-feira

Tempo Temperatura Precipitação Vento Pressão Humidade
00:00 +13°C° 0 mm 2 m/s 758 mmHg 91%
01:00 +13°C° 0 mm 2 m/s 758 mmHg 91%
02:00 +12°C° 0 mm 2 m/s 758 mmHg 92%
03:00 +12°C° 0 mm 2 m/s 757 mmHg 92%
04:00 +12°C° 0 mm 2 m/s 757 mmHg 92%
05:00 +13°C° 0 mm 2 m/s 757 mmHg 91%
06:00 +13°C° 0 mm 2 m/s 757 mmHg 91%
07:00 +13°C° 0.1 mm 3 m/s 757 mmHg 90%
08:00 +14°C° 0.1 mm 3 m/s 756 mmHg 89%
09:00 +15°C° 0.1 mm 4 m/s 756 mmHg 88%
10:00 +16°C° 0.3 mm 5 m/s 756 mmHg 83%
11:00 +17°C° 0.3 mm 5 m/s 755 mmHg 77%
12:00 +19°C° 0.3 mm 6 m/s 755 mmHg 72%
13:00 +19°C° 0.3 mm 6 m/s 754 mmHg 74%
14:00 +17°C° 0.3 mm 6 m/s 754 mmHg 76%
15:00 +17°C° 0.3 mm 5 m/s 753 mmHg 78%
16:00 +17°C° 0.3 mm 5 m/s 753 mmHg 80%
17:00 +16°C° 0.3 mm 5 m/s 752 mmHg 82%
18:00 +16°C° 0.3 mm 5 m/s 752 mmHg 84%
19:00 +15°C° 0.5 mm 5 m/s 752 mmHg 87%
20:00 +15°C° 0.5 mm 5 m/s 751 mmHg 89%
21:00 +14°C° 0.5 mm 5 m/s 751 mmHg 91%
22:00 +14°C° 0.8 mm 5 m/s 751 mmHg 91%
23:00 +14°C° 0.8 mm 5 m/s 750 mmHg 91%

1 Outubro, Quinta-feira

Tempo Temperatura Precipitação Vento Pressão Humidade
00:00 +14°C° 0.8 mm 5 m/s 750 mmHg 92%
01:00 +13°C° 0.4 mm 5 m/s 749 mmHg 92%
02:00 +13°C° 0.4 mm 4 m/s 749 mmHg 92%
03:00 +12°C° 0.4 mm 4 m/s 749 mmHg 93%
04:00 +12°C° 0.2 mm 4 m/s 749 mmHg 93%
05:00 +12°C° 0.2 mm 3 m/s 748 mmHg 93%
06:00 +11°C° 0.2 mm 3 m/s 748 mmHg 94%
07:00 +12°C° 0.2 mm 3 m/s 748 mmHg 90%
08:00 +13°C° 0.2 mm 4 m/s 748 mmHg 86%
09:00 +13°C° 0.2 mm 4 m/s 748 mmHg 83%
10:00 +13°C° 0.3 mm 5 m/s 749 mmHg 81%
11:00 +13°C° 0.3 mm 5 m/s 749 mmHg 79%
12:00 +13°C° 0.3 mm 6 m/s 749 mmHg 77%
13:00 +13°C° 0 mm 6 m/s 749 mmHg 72%
14:00 +14°C° 0 mm 6 m/s 749 mmHg 67%
15:00 +14°C° 0 mm 6 m/s 749 mmHg 62%
16:00 +13°C° 0 mm 5 m/s 750 mmHg 66%
17:00 +12°C° 0 mm 4 m/s 750 mmHg 71%
18:00 +11°C° 0 mm 3 m/s 750 mmHg 75%
19:00 +11°C° 0 mm 3 m/s 749 mmHg 75%
20:00 +11°C° 0 mm 3 m/s 749 mmHg 76%
21:00 +11°C° 0 mm 4 m/s 749 mmHg 76%
22:00 +11°C° 0 mm 4 m/s 748 mmHg 77%
23:00 +10°C° 0 mm 5 m/s 747 mmHg 78%

2 Outubro, Sexta-feira

Tempo Temperatura Precipitação Vento Pressão Humidade
00:00 +10°C° 0 mm 5 m/s 746 mmHg 78%
01:00 +9°C° 0 mm 5 m/s 745 mmHg 81%
02:00 +9°C° 0 mm 5 m/s 744 mmHg 83%
03:00 +9°C° 0 mm 6 m/s 743 mmHg 85%
04:00 +9°C° 0.5 mm 6 m/s 742 mmHg 87%
05:00 +10°C° 0.5 mm 7 m/s 740 mmHg 89%
06:00 +10°C° 0.5 mm 8 m/s 739 mmHg 91%
07:00 +11°C° 2.7 mm 8 m/s 738 mmHg 91%
08:00 +12°C° 2.7 mm 8 m/s 736 mmHg 91%
09:00 +13°C° 2.7 mm 8 m/s 735 mmHg 90%
10:00 +15°C° 0.2 mm 9 m/s 734 mmHg 85%
11:00 +16°C° 0.2 mm 9 m/s 733 mmHg 80%
12:00 +16°C° 0.2 mm 10 m/s 733 mmHg 75%
13:00 +15°C° 1.7 mm 8 m/s 732 mmHg 81%
14:00 +14°C° 1.7 mm 6 m/s 731 mmHg 88%
15:00 +13°C° 1.7 mm 4 m/s 730 mmHg 94%
16:00 +13°C° 3 mm 5 m/s 730 mmHg 93%
17:00 +12°C° 3 mm 5 m/s 730 mmHg 92%
18:00 +11°C° 3 mm 6 m/s 730 mmHg 91%
19:00 +11°C° 0.1 mm 6 m/s 730 mmHg 90%
20:00 +11°C° 0.1 mm 6 m/s 731 mmHg 89%
21:00 +11°C° 0.1 mm 6 m/s 731 mmHg 88%
22:00 +11°C° 0.2 mm 6 m/s 732 mmHg 87%
23:00 +10°C° 0.2 mm 5 m/s 732 mmHg 87%

3 Outubro, Sábado

Tempo Temperatura Precipitação Vento Pressão Humidade
00:00 +10°C° 0.2 mm 5 m/s 732 mmHg 87%
01:00 +10°C° 0 mm 5 m/s 733 mmHg 86%
02:00 +9°C° 0 mm 5 m/s 733 mmHg 86%
03:00 +9°C° 0 mm 5 m/s 733 mmHg 85%
04:00 +9°C° 0.1 mm 5 m/s 734 mmHg 85%
05:00 +8°C° 0.1 mm 5 m/s 734 mmHg 85%
06:00 +8°C° 0.1 mm 4 m/s 735 mmHg 85%
07:00 +8°C° 0 mm 5 m/s 735 mmHg 83%
08:00 +9°C° 0 mm 6 m/s 735 mmHg 82%
09:00 +9°C° 0 mm 6 m/s 736 mmHg 80%
10:00 +10°C° 0 mm 6 m/s 736 mmHg 75%
11:00 +11°C° 0 mm 6 m/s 736 mmHg 70%
12:00 +12°C° 0 mm 7 m/s 736 mmHg 65%
13:00 +13°C° 0.1 mm 6 m/s 736 mmHg 64%
14:00 +14°C° 0.1 mm 6 m/s 736 mmHg 63%
15:00 +14°C° 0.1 mm 6 m/s 736 mmHg 61%
16:00 +13°C° 0.1 mm 6 m/s 736 mmHg 67%
17:00 +10°C° 0.1 mm 5 m/s 736 mmHg 72%
18:00 +9°C° 0.1 mm 5 m/s 736 mmHg 77%
19:00 +9°C° 0 mm 5 m/s 736 mmHg 79%
20:00 +8°C° 0 mm 5 m/s 736 mmHg 81%
21:00 +8°C° 0 mm 5 m/s 735 mmHg 82%
22:00 +8°C° 0 mm 6 m/s 735 mmHg 84%
23:00 +7°C° 0 mm 6 m/s 735 mmHg 85%
Mostrar mais